一网星座-0199星 (ONEWEB-0199 )

导读 | 星芒AI

ONEWEB-0199 是 OneWeb 卫星通信公司发射的低轨通信卫星之一,属于其全球宽带互联网星座计划的一部分。该卫星运行在约 1200 公里的近地轨道,采用先进通信技术,旨在为全球偏远地区提供高速互联网服务。OneWeb 通过部署大量此类卫星,构建覆盖全球的通信网络,支持航空、航海及地面用户接入。ONEWEB-0199 的发射和运行有助于增强 OneWeb 网络的覆盖能力与可靠性。

基本信息
目录编号:
48234
目录名称:
ONEWEB-0199
国际标识:
2021-031AA
轨道中心:
EARTH
卫星名称:
一网星座-0199星
卫星全名:
一网星座-0199星 (ONEWEB-0199 )
卫星状态:
在轨 (已飞行1649 天)
发射日期:
2021-04-25 UTC
国别 :
英国 (GB)
星等 :
--
轨道信息
数据来源 国际轨道数据
星历时间: 2025-10-30T04:28:12+0800
8小时前
查看轨道信息
半长轴: 7583.936km
偏心率: 0.0001804
轨道倾角: 87.901°
近地点辐角 101.149°
升交点赤经 335.577°
平近点角 258.984°
近地点: 1204.432km
远地点: 1207.17km
周期: 109.547分钟
每日圈数: 13.145008
详细信息
平衡模式:
三轴稳定
覆盖范围:
全球
运营商:
一网卫星公司
运营商所在国:
英国
制造商(研发单位):
一网卫星公司
制造商所在国:
英国
使用方式:
暂无
卫星简介
OneWeb卫星网络由648颗重约125公斤的微型卫星组成,运行在1200公里的轨道上。 每颗卫星都能够提供至少每秒8千兆位的吞吐量,以使用其高吞吐量的Ku频段有效载荷为家庭和移动平台提供互联网接入。该卫星仍在工作。
2D轨道图
3D轨道图
轨道高度分析图
轨道倾角分析图
轨道综合分析图
查看轨道综合分析图